Flag for Canada Weather past 2 weeks in Happy Valley-Goose Bay, Newfoundland and Labrador, Canada

Now
55 °F

Passing clouds.


Feels Like: 55 °F
Forecast: 49 / 74 °F
Wind: No wind

Location: Goose

Current Time: Jul 25, 2014 at 1:25:40 AM

Latest Report: Jul 25, 2014 at 12:00 AM


Visibility: 15 mi

Pressure: 29.74 "Hg

Humidity: 63%

Dew point: 43 °F

Location of Happy Valley-Goose BayLocation

Historic Weather in Happy Valley-Goose Bay — Graph

°F

Happy Valley-Goose Bay temperature yesterday

Maximum temperature yesterday: 68 °F (at 4:00 PM)
Minimum temperature yesterday: 55 °F (at 5:00 AM)
Average temperature yesterday: 62 °F

Past Weeks' High & Low Weather Summary

 TemperatureHumidityPressure
High90 °F (Jul 21, 2:00 PM)94% (Jul 10, 12:00 AM)30.13 "Hg (Jul 10, 12:00 AM)
Low45 °F (Jul 19, 6:00 AM)26% (Jul 21, 3:00 PM)29.26 "Hg (Jul 23, 8:00 PM)
Average62 °F69%29.81 "Hg
* Reported Midnight between Jul 9 and Jul 10 — Midnight between Jul 24 and Jul 25, Happy Valley-Goose Bay, Weather by CustomWeather, © 2014

Note: Actual official high and low records may vary slightly from our data, if they occured in-between our weather recording intervals... More about our weather records

Advertising

Happy Valley-Goose Bay weather history for previous 24 hours

 ConditionsComfort  
Time TempWeatherWind HumidityBarometerVisibility
12:00 AM
Jul 25
55 °FPassing clouds.No wind63%29.74 "Hg15 mi
11:00 PM
Jul 24
57 °FPassing clouds.5 mph55%29.73 "Hg15 mi
10:00 PM61 °FPassing clouds.6 mph52%29.72 "Hg15 mi
9:00 PM64 °FPassing clouds.5 mph46%29.71 "Hg15 mi
8:00 PM66 °FScattered clouds.7 mph40%29.70 "Hg15 mi
7:00 PM66 °FPartly sunny.10 mph40%29.69 "Hg15 mi
6:00 PM66 °FPartly sunny.8 mph43%29.67 "Hg15 mi
5:00 PM68 °FPartly sunny.18 mph38%29.67 "Hg15 mi
4:00 PM68 °FBroken clouds.14 mph38%29.67 "Hg15 mi
3:00 PM66 °FScattered clouds.17 mph40%29.67 "Hg15 mi
2:00 PM66 °FPartly sunny.16 mph37%29.67 "Hg15 mi
1:00 PM64 °FPartly sunny.17 mph43%29.67 "Hg15 mi
12:00 PM64 °FPartly sunny.16 mph46%29.67 "Hg15 mi
11:00 AM64 °FPartly sunny.10 mph46%29.65 "Hg15 mi
10:00 AM61 °FPartly sunny.18 mph52%29.64 "Hg15 mi
9:00 AM61 °FPassing clouds.18 mph55%29.63 "Hg15 mi
8:00 AM59 °FPassing clouds.15 mph63%29.61 "Hg15 mi
7:00 AM57 °FPassing clouds.16 mph63%29.59 "Hg15 mi
6:00 AM57 °FPassing clouds.17 mph63%29.57 "Hg15 mi
5:00 AM55 °FPassing clouds.18 mph63%29.55 "Hg15 mi
4:00 AM57 °FPassing clouds.24 mph59%29.52 "Hg15 mi
3:00 AM59 °FPassing clouds.23 mph63%29.49 "Hg15 mi
2:00 AM61 °FPassing clouds.21 mph63%29.47 "Hg15 mi
1:00 AM61 °FPassing clouds.15 mph63%29.44 "Hg15 mi
Weather by CustomWeather, © 2014

See weather overviewHow to use our weather pages